Location: Chisholm
(54.9102°N, 114.1701°W)
Time: 12:05:47
(UTC+00:00)

N. Korean satellite - Pass Details

Date: 07 December 2021
Orbit: 447 x 491 km, 97.3° (Epoch: 25 January)

Event Time Altitude Azimuth Distance (km) Brightness Sun altitude
Rises 12:47:20 0° 17° (NNE) 2,472 10.3 -24.2°
Reaches altitude 10° 12:49:25 10° 23° (NNE) 1,591 9.3 -23.9°
Maximum altitude 12:52:45 51° 100° (E) 572 7.2 -23.4°
Drops below altitude 10° 12:56:03 10° 178° (S) 1,575 9.2 -22.9°
Sets 12:58:06 0° 184° (S) 2,443 10.2 -22.6°
